Shute Harbour, Australia

11:48 AM AEST on April 25, 2018 (GMT +1000)
Shute Harbour

Weather History for 94368 - July, 2013

Change the Weather History Date:

Wednesday, July 3, 2013

  Actual Average Record
Temperature  
Mean Temperature 68 °F -  
Max Temperature 70 °F - - ()
Min Temperature 65 °F - - ()
Cooling Degree Days 2    
Growing Degree Days 18 (Base 50)    
Moisture  
Dew Point 62 °F    
Average Humidity 79    
Maximum Humidity 94    
Minimum Humidity 62    
Precipitation  
Precipitation 0.00 in - - ()
Sea Level Pressure  
Sea Level Pressure 30.08 in    
Wind  
Wind Speed 16 mph ()    
Max Wind Speed 26 mph    
Max Gust Speed -    
T = Trace of Precipitation, MM = Missing Value Source: Averaged Metar Reports

Daily Weather History Graph

Daily Weather History Graph

Search for Another Location

Airport or City:

Astronomy

Jul. 03, 2013 Rise Set
Actual Time 6:40 AM AEST 5:36 PM AEST
Civil Twilight 6:16 AM AEST 6:00 PM AEST
Nautical Twilight 5:49 AM AEST 6:27 PM AEST
Astronomical Twilight 5:22 AM AEST 6:54 PM AEST
Moon 2:11 AM AEST (7/3) 1:44 PM AEST (7/3)
Length of Visible Light 11h 43m
Length of Day
10h 55m
Waning Crescent, 23% of the Moon is Illuminated
Jul 3
Waning Crescent
Jul 8
New
Jul 16
First Quarter
Jul 23
Full
Jul 30
Last Quarter

Hourly Weather History & Observations

Time (AEST) Temp. Dew Point Humidity Pressure Visibility Wind Dir Wind Speed Gust Speed Precip Events Conditions
12:00 AM 67 °F 62 °F 81% 30.09 in - South 9.2 mph - -  
12:00 AM 68.0 °F 62.6 °F 83% 30.09 in - South 9.2 mph - N/A   Unknown
12:30 AM 68.0 °F 62.6 °F 83% 30.06 in - SSE 11.5 mph - N/A   Unknown
1:00 AM 68.0 °F 62.6 °F 83% 30.06 in - SSE 11.5 mph - N/A   Unknown
1:30 AM 66.2 °F 62.6 °F 88% 30.06 in - SSE 12.7 mph - N/A   Unknown
2:00 AM 66.2 °F 62.6 °F 88% 30.06 in - SSE 12.7 mph - N/A   Unknown
2:30 AM 66.2 °F 62.6 °F 88% 30.04 in - SSE 12.7 mph - N/A   Unknown
3:00 AM 66 °F 62 °F 82% 30.05 in - SSE 13.8 mph - -  
3:00 AM 66.2 °F 62.6 °F 88% 30.04 in - SSE 13.8 mph - N/A   Unknown
3:30 AM 66.2 °F 60.8 °F 83% 30.04 in - SSE 15.0 mph - N/A   Unknown
4:00 AM 66.2 °F 60.8 °F 83% 30.04 in - SSE 13.8 mph - N/A   Unknown
4:30 AM 66.2 °F 60.8 °F 83% 30.06 in - SSE 12.7 mph - N/A   Unknown
5:00 AM 68.0 °F 59.0 °F 73% 30.06 in - SSE 18.4 mph - N/A   Unknown
5:30 AM 66.2 °F 57.2 °F 73% 30.06 in - SSE 17.3 mph - N/A   Unknown
6:00 AM 67 °F 57 °F 63% 30.07 in - SSE 18.4 mph - -  
6:00 AM 68.0 °F 57.2 °F 68% 30.06 in - SSE 18.4 mph - N/A   Unknown
6:30 AM 68.0 °F 57.2 °F 68% 30.06 in - SSE 20.7 mph - N/A   Unknown
7:00 AM 68.0 °F 60.8 °F 78% 30.06 in - SSE 23.0 mph - N/A   Unknown
7:30 AM 68.0 °F 60.8 °F 78% 30.09 in - SSE 23.0 mph - N/A   Unknown
8:00 AM 68.0 °F 59.0 °F 73% 30.09 in - SSE 23.0 mph - N/A   Unknown
8:30 AM 68.0 °F 57.2 °F 68% 30.12 in - SSE 24.2 mph - N/A   Unknown
9:00 AM 69 °F 59 °F 62% 30.13 in - SSE 23.0 mph - -  
9:00 AM 69.8 °F 59.0 °F 68% 30.12 in - SSE 23.0 mph - N/A   Unknown
9:30 AM 69.8 °F 60.8 °F 73% 30.12 in - SSE 25.3 mph - N/A   Unknown
10:00 AM 69.8 °F 59.0 °F 68% 30.12 in - SSE 24.2 mph - N/A   Unknown
10:30 AM 69.8 °F 59.0 °F 68% 30.12 in - SSE 25.3 mph - N/A   Unknown
11:00 AM 69.8 °F 60.8 °F 73% 30.12 in - SSE 25.3 mph - N/A   Unknown
11:30 AM 69.8 °F 59.0 °F 68% 30.09 in - SSE 24.2 mph - N/A   Unknown
12:00 PM 70 °F 61 °F 67% 30.10 in - SSE 26.5 mph - -  
12:00 PM 69.8 °F 60.8 °F 73% 30.09 in - SSE 26.5 mph - N/A   Unknown
12:30 PM 69.8 °F 60.8 °F 73% 30.06 in - SSE 25.3 mph - N/A   Unknown
1:00 PM 69.8 °F 62.6 °F 78% 30.06 in - SSE 25.3 mph - N/A   Unknown
1:30 PM 69.8 °F 62.6 °F 78% 30.06 in - SSE 23.0 mph - N/A   Unknown
2:00 PM 69.8 °F 62.6 °F 78% 30.06 in - SSE 23.0 mph - N/A   Unknown
2:30 PM 69.8 °F 60.8 °F 73% 30.04 in - SSE 21.9 mph - N/A   Unknown
3:00 PM 69 °F 61 °F 70% 30.06 in - SSE 19.6 mph - -  
3:00 PM 69.8 °F 60.8 °F 73% 30.04 in - SSE 19.6 mph - N/A   Unknown
3:30 PM 69.8 °F 62.6 °F 78% 30.04 in - SSE 21.9 mph - N/A   Unknown
4:00 PM 68.0 °F 62.6 °F 83% 30.04 in - SE 21.9 mph - N/A   Unknown
4:30 PM 68.0 °F 62.6 °F 83% 30.06 in - SE 23.0 mph - N/A   Unknown
5:00 PM 68.0 °F 62.6 °F 83% 30.06 in - SE 20.7 mph - N/A   Unknown
5:30 PM 68.0 °F 62.6 °F 83% 30.06 in - SE 19.6 mph - N/A   Unknown
6:00 PM 68 °F 64 °F 81% 30.08 in - SE 18.4 mph - -  
6:00 PM 68.0 °F 64.4 °F 88% 30.06 in - SE 18.4 mph - N/A   Unknown
6:30 PM 68.0 °F 62.6 °F 83% 30.06 in - SE 20.7 mph - N/A   Unknown
7:00 PM 68.0 °F 64.4 °F 88% 30.09 in - SE 21.9 mph - N/A   Unknown
7:30 PM 68.0 °F 62.6 °F 83% 30.09 in - SSE 23.0 mph - N/A   Unknown
8:00 PM 68.0 °F 64.4 °F 88% 30.09 in - SE 25.3 mph - N/A   Unknown
8:30 PM 68.0 °F 64.4 °F 88% 30.09 in - SSE 23.0 mph - N/A   Unknown
9:00 PM 68 °F 65 °F 85% 30.11 in - SE 24.2 mph - -  
9:00 PM 68.0 °F 64.4 °F 88% 30.09 in - SE 24.2 mph - N/A   Unknown
9:30 PM 68.0 °F 64.4 °F 88% 30.09 in - SE 21.9 mph - N/A   Unknown
10:00 PM 68.0 °F 64.4 °F 88% 30.09 in - SSE 21.9 mph - N/A   Unknown
10:30 PM 68.0 °F 66.2 °F 94% 30.09 in - SSE 18.4 mph - N/A   Unknown
11:00 PM 68.0 °F 64.4 °F 88% 30.09 in - SSE 17.3 mph - N/A   Unknown
11:30 PM 68.0 °F 66.2 °F 94% 30.09 in - SSE 19.6 mph - N/A   Unknown